Regional Weather Roundup
Issued by NWS

Home | Current Version | Previous Version | Graphics & Text | Print | Product List | Glossary On
Versions: 1 2 3 4 5 6 7 8 9 10 11 12 13 14 15 16 17 18 19 20 21 22 23 24 25 26 27 28 29 30 31 32 33 34 35 36 37 38 39 40 41 42 43 44 45 46 47 48 49 50
000
ASUS43 KDMX 011207
RWRIA

WEATHER ROUNDUP FOR IOWA
NATIONAL WEATHER SERVICE DES MOINES IA
700 AM CDT TUE SEP 01 2015

NOTE: "FAIR" INDICATES FEW OR NO CLOUDS BELOW 12,000 FEET WITH NO
SIGNIFICANT WEATHER AND/OR OBSTRUCTIONS TO VISIBILITY.

* - THESE STATIONS ARE NOT NWS STATIONS...THUS NOT UNDER NWS
QUALITY CONTROL.  THEY ALSO DO NOT REPORT WEATHER SUCH
AS PRECIPITATION OR FOG.

IAZ001>003-012>014-020>022-031>034-043>046-011300-
   NORTHWEST IOWA

CITY           SKY/WX    TMP DP  RH WIND       PRES   REMARKS
CARROLL *      CLEAR     70  68  94 S10       29.94R
CHEROKEE *     CLEAR     63  63 100 CALM      29.91S FOG
DENISON *      CLEAR     70  66  88 VRB6      29.92S
LE MARS *      CLEAR     66  66 100 S6        29.90S FOG
ORANGE CITY *  CLEAR     68  66  94 SE3       29.92R
SHELDON *      CLEAR     64  64 100 CALM      29.90S FOG
SIOUX CITY     PTCLDY    66  63  90 SE9       29.89S FOG
6HR MIN TEMP:  66; 6HR MAX TEMP:  69;

SPENCER        PTCLDY    62  60  93 E3        29.93R FOG
6HR MIN TEMP:  62; 6HR MAX TEMP:  66;

STORM LAKE *   CLEAR     66  66 100 S8        29.94S FOG
$$

IAZ055>058-069>071-079>083-090>094-011300-
   SOUTHWEST IOWA

CITY           SKY/WX    TMP DP  RH WIND       PRES   REMARKS
ATLANTIC *     CLEAR     68  68 100 S7        29.96S
AUDUBON *      CLEAR     66  64  94 S5        29.97S FOG
CLARINDA *     CLEAR     66  66 100 S5        30.00R FOG
COUNCIL BLFS * CLEAR     68  66  94 S8        29.95R
CRESTON *      CLEAR     68  66  94 S9        30.01R FOG
LAMONI         CLEAR     70  67  90 S9        30.01R FOG
6HR MIN TEMP:  69; 6HR MAX TEMP:  73;

RED OAK *        N/A    N/A N/A N/A MISG      29.97R
SHENANDOAH *   CLEAR     70  68  94 S6        29.97S
$$

IAZ047>049-059>061-072>074-084-011300-
   CENTRAL IOWA

CITY           SKY/WX    TMP DP  RH WIND       PRES   REMARKS
AMES           FOG       62  62 100 SE5       29.97R VSB 1/4
6HR MIN TEMP:  61; 6HR MAX TEMP:  67;

ANKENY *       CLEAR     66  66 100 S5        29.97R
CHARITON *     CLEAR     70  68  94 S8        30.01R
DES MOINES     PTCLDY    69  66  90 S7        29.97R FOG
6HR MIN TEMP:  69; 6HR MAX TEMP:  74;

GRINNELL*      CLEAR     68  66  94 S6        30.01R
KNOXVILLE *    CLEAR     70  68  94 S8        29.98R
MARSHALLTOWN   CLEAR     66  65  96 SE5       29.98R FOG
6HR MIN TEMP:  66; 6HR MAX TEMP:  71;

PELLA *        CLEAR     70  70 100 S5        30.01R
PERRY *          N/A     66  66  98 S5        29.96S FOG
$$

IAZ004>006-015-016-023>025-035-036-011300-
   NORTH CENTRAL IOWA

CITY           SKY/WX    TMP DP  RH WIND       PRES   REMARKS
ALGONA *       CLEAR     68  66  94 S7        29.95R FOG
CLARION *      FOG       66  66 100 S8        29.95S VSB 1/2
ESTHERVILLE    CLEAR     62  61  96 S3        29.93R FOG
6HR MIN TEMP:  61; 6HR MAX TEMP:  64;

FORT DODGE *   CLEAR     68  64  88 S5        29.95S
MASON CITY     FOG       64  64 100 S5        29.97S VSB 1
6HR MIN TEMP:  62; 6HR MAX TEMP:  65;

FOREST CITY *    N/A     63  63 100 SE3       29.96R FOG
IOWA FALLS *     N/A     66  64  94 SE6       29.99R FOG
$$

IAZ007>011-017>019-026>030-037>042-050>054-066-011300-
   NORTHEAST IOWA

CITY           SKY/WX    TMP DP  RH WIND       PRES   REMARKS
CEDAR RAPIDS   CLEAR     67  67 100 S6        30.00R
6HR MIN TEMP:  66; 6HR MAX TEMP:  72;

CHARLES CITY * PTCLDY    68  68 100 S5        29.98R FOG
CLINTON *      PTCLDY    70  68  94 S3        30.05R
DECORAH *      CLEAR     68  68 100 S5        29.98S FOG
DUBUQUE        CLEAR     68  67  96 S6        30.03R FOG
6HR MIN TEMP:  67; 6HR MAX TEMP:  74;

MONTICELLO *   CLEAR     68  68 100 S3        30.01R FOG
OELWEIN *        N/A     68  68 100 S6        30.00R FOG
WATERLOO       CLEAR     69  67  93 SE5       29.97R FOG
6HR MIN TEMP:  68; 6HR MAX TEMP:  73;

$$

IAZ064-065-067-068-078-011300-
   EAST CENTRAL IOWA

CITY           SKY/WX    TMP DP  RH WIND       PRES   REMARKS
DAVENPORT      PTCLDY    72  70  93 S6        30.03R FOG
6HR MIN TEMP:  72; 6HR MAX TEMP:  76;

IOWA CITY      FOG       66  65  96 CALM      30.02R VSB 1/4
6HR MIN TEMP:  66; 6HR MAX TEMP:  72;

MT. PLEASANT * CLEAR     72  68  87 S5        30.03S FOG
MUSCATINE *    CLEAR     72  70  94 S5        30.02S
QUAD CITIES    CLEAR     71  68  90 CALM      30.03R FOG
6HR MIN TEMP:  71; 6HR MAX TEMP:  76;

$$

IAZ062-063-075>077-085>089-095>099-011300-
   SOUTHEAST IOWA

CITY           SKY/WX    TMP DP  RH WIND       PRES   REMARKS
BURLINGTON     CLEAR     71  70  96 S6        30.04R FOG
6HR MIN TEMP:  71; 6HR MAX TEMP:  75;

FAIRFIELD *    CLEAR     70  66  88 S6        30.02R
FORT MADISON * CLEAR     72  72 100 S6        30.05R FOG
KEOKUK *       CLEAR     73  70  88 S7        30.04R
OSKALOOSA *    MOCLDY    67  66  96 S5        30.02R FOG
CENTERVILLE *  CLEAR     68  68 100 S7        30.05R
OTTUMWA        CLEAR     69  68  96 S8        30.00R
6HR MIN TEMP:  69; 6HR MAX TEMP:  71;

WASHINGTON *     N/A    N/A N/A N/A MISG        N/A
$$

ABBREVIATIONS USED IN REMARKS
   TC - TEMPERATURES IN CELSIUS
  WCI - WIND CHILL INDEX
   HX - HEAT INDEX
  VSB - VISIBILITY
$$



USA.gov is the U.S. government's official web portal to all federal, state and local government web resources and services.